Notices

What's New in latest Release from April 7th, 2021:

- Updated Glossary, including Speed of Maximum Gust, and Total Hourly Precipitation

- Updated national and regional climate services offices contacts and prices information

- Addition of station inventory lists for 1981-2010, 1971-2000, and 1961-1990 Normals.

If you haven't already, please take our survey and provide feedback about our website: https://eccc.sondage-survey.ca/f/LanguageSelection.aspx?s=442ca660-fcf1-47c0-95a9-59707d6fd709

Hourly Data Report for August 17, 2003

TORONTO CITY
ONTARIO

43°40'00.000" N
79°24'00.000" W
112.50 m
6158355
71508
XTO

Download Data

Hourly Data (August 2003)
Hourly Data Report for August 17, 2003
TIME
LST
Temp Definition
°C
Dew Point Definition
°C
Rel Hum Definition
%
Precip. Amount Definition
mm

Wind Dir Definition
10's deg

Wind Spd Definition
km/h
Visibility Definition
km
Stn Press Definition
kPa
Hmdx Definition


Wind Chill Definition


Weather Definition


00:00 20.8 14.7 68   LegendMM LegendMM LegendMM 99.92 25   LegendNANA
01:00 19.6 14.4 72   LegendMM LegendMM LegendMM 99.94     LegendNANA
02:00 19.4 14.1 71   LegendMM LegendMM LegendMM 99.98     LegendNANA
03:00 18.4 13.7 74   LegendMM LegendMM LegendMM 100.04     LegendNANA
04:00 17.6 13.4 76   LegendMM LegendMM LegendMM 100.09     LegendNANA
05:00 17.1 13.5 79   LegendMM LegendMM LegendMM 100.12     LegendNANA
06:00 16.9 13.6 81   LegendMM LegendMM LegendMM 100.20     LegendNANA
07:00
08:00 18.8 13.9 73   LegendMM LegendMM LegendMM 100.25     LegendNANA
09:00 20.2 13.7 66   LegendMM LegendMM LegendMM 100.26     LegendNANA
10:00 21.9 14.5 63   LegendMM LegendMM LegendMM 100.28 26   LegendNANA
11:00 22.6 13.6 57   LegendMM LegendMM LegendMM 100.28 26   LegendNANA
12:00 22.4 12.9 55   LegendMM LegendMM LegendMM 100.27 25   LegendNANA
13:00 23.7 13.4 52   LegendMM LegendMM LegendMM 100.23 27   LegendNANA
14:00 24.5 16.0 59   LegendMM LegendMM LegendMM 100.21 29   LegendNANA
15:00 25.0 16.2 58   LegendMM LegendMM LegendMM 100.16 30   LegendNANA
16:00 23.3 16.1 64   LegendMM LegendMM LegendMM 100.16 28   LegendNANA
17:00 23.1 16.7 67   LegendMM LegendMM LegendMM 100.17 28   LegendNANA
18:00 24.2 11.7 46   LegendMM LegendMM LegendMM 100.17 26   LegendNANA
19:00 23.0 14.0 57   LegendMM LegendMM LegendMM 100.20 26   LegendNANA
20:00 21.3 13.4 61   LegendMM LegendMM LegendMM 100.27     LegendNANA
21:00 20.0 12.5 62   LegendMM LegendMM LegendMM 100.32     LegendNANA
22:00 19.4 12.5 64   LegendMM LegendMM LegendMM 100.32     LegendNANA
23:00 18.9 12.2 65   LegendMM LegendMM LegendMM 100.36     LegendNANA

Notes on Data Quality.

Legend

  • E = Estimated
  • M = Missing
  • NA = Not Available*
  • [empty] = Indicates an unobserved value
Date modified: